Weather in Bardolino

Italy     45°32′54″N   10°43′26″E
temp.,
°C
wind,
m/s
gust,
m/s
humid.,
%
clouds,
%
prec.,
mm/h
press.,
hPa
HPBL,
m
19 september, sun
sun1923:00+20se3482100 2.0 1012199
02:00+19e1283100 3.8 1012153
05:00+19nne018130 1.1 1011122
08:00+19e118199 1.5 1011191
11:00+21se3472100 0.3 1011535
14:00+21ese2476100 3.6 1010310
17:00+21ese34750 4.0 1009235
20:00+20e1165100 6.6 1009148
20 september, mon
mon2023:00+19ssw126881 0.3 1010166
02:00+17n137518 0.6 1010166
05:00+17nne567017 0.0 1010226
08:00+17nne446890 0.0 1012234
11:00+19ese22605 0.0 1014555
14:00+22se23539 0.1 10141138
17:00+22ese335510 0.6 10151170
20:00+20ese35695 1.8 1016373
21 september, tue
tue2123:00+18ene227024 0.2 1018131
02:00+18e126856 0.4 1020130
05:00+18wnw016817 0.0 1020147
08:00+18nw226885 0.1 1021414
11:00+20sw115825 0.0 1023688
14:00+21w11533 0.0 1022688
17:00+20nnw11575 0.0 1022621
20:00+20e11590 0.0 1022212
22 september, wed
wed2223:00+19e11621 0.0 1024118
02:00+18nnw11648 0.0 1024136
05:00+18n226633 0.0 1022182
08:00+18nne0168100 0.0 1022227
11:00+19se226575 0.0 1022485
14:00+20s115717 0.0 1020754
17:00+21ene11529 0.0 1019788
20:00+20ese345838 0.0 1019402
23 september, thu
thu2323:00+18ese366422 0.0 1020277
02:00+18ese3663100 0.0 1019308
05:00+17se356296 0.0 1019345
08:00+17se235992 0.0 1018324
11:00+18sw115595 0.0 1019564
14:00+19nw215563 0.0 1018623
17:00+19nnw115792 0.0 1016412
20:00+20nne335782 0.0 1016182